Time,TemperatureF,DewpointF,PressureIn,WindDirection,WindDirectionDegrees,WindSpeedMPH,WindSpeedGustMPH,Humidity,HourlyPrecipIn,Conditions,Clouds,dailyrainin,SoftwareType,DateUTC
2013-01-27 00:00:00,22.8,18.1,30.41,East,90,0.0,2.0,82,0.00,,---,0.01,VWS V14.01,2013-01-27 05:00:00,
2013-01-27 00:04:00,22.8,18.1,30.41,East,90,0.0,0.0,82,0.00,,---,0.00,VWS V14.01,2013-01-27 05:04:00,
2013-01-27 00:09:00,22.9,18.0,30.41,East,90,0.0,0.0,81,0.00,,---,0.00,VWS V14.01,2013-01-27 05:09:00,
2013-01-27 00:14:00,23.0,18.0,30.41,East,90,0.0,1.0,81,0.00,,---,0.00,VWS V14.01,2013-01-27 05:14:00,
2013-01-27 00:19:00,22.8,17.9,30.41,East,90,1.0,1.0,81,0.00,,---,0.00,VWS V14.01,2013-01-27 05:19:00,
2013-01-27 00:24:00,22.5,17.9,30.41,East,90,0.0,1.0,82,0.00,,---,0.00,VWS V14.01,2013-01-27 05:24:00,
2013-01-27 00:29:00,22.4,17.8,30.41,East,90,0.0,1.0,82,0.00,,---,0.00,VWS V14.01,2013-01-27 05:29:00,
2013-01-27 00:34:00,21.8,17.4,30.41,East,90,0.0,0.0,83,0.00,,---,0.00,VWS V14.01,2013-01-27 05:34:00,
2013-01-27 00:39:00,21.9,17.8,30.41,East,90,0.0,0.0,84,0.00,,---,0.00,VWS V14.01,2013-01-27 05:39:00,
2013-01-27 00:44:00,22.2,17.8,30.41,East,90,0.0,1.0,83,0.00,,---,0.00,VWS V14.01,2013-01-27 05:44:00,
2013-01-27 00:49:00,22.2,18.1,30.41,East,90,0.0,1.0,84,0.00,,---,0.00,VWS V14.01,2013-01-27 05:49:00,
2013-01-27 00:54:00,22.3,18.2,30.41,East,90,0.0,1.0,84,0.00,,---,0.00,VWS V14.01,2013-01-27 05:54:00,
2013-01-27 00:59:00,22.1,18.0,30.41,East,90,1.0,1.0,84,0.00,,---,0.00,VWS V14.01,2013-01-27 05:59:00,
2013-01-27 01:04:00,22.4,18.0,30.40,East,90,1.0,2.0,83,0.00,,---,0.00,VWS V14.01,2013-01-27 06:04:00,
2013-01-27 01:09:00,22.2,17.8,30.39,East,90,0.0,2.0,83,0.00,,---,0.00,VWS V14.01,2013-01-27 06:09:00,
2013-01-27 01:14:00,22.1,17.7,30.39,East,90,1.0,2.0,83,0.00,,---,0.00,VWS V14.01,2013-01-27 06:14:00,
2013-01-27 01:19:00,21.7,17.6,30.39,East,90,0.0,2.0,84,0.00,,---,0.00,VWS V14.01,2013-01-27 06:19:00,
2013-01-27 01:24:00,21.6,17.5,30.39,East,90,0.0,2.0,84,0.00,,---,0.00,VWS V14.01,2013-01-27 06:24:00,
2013-01-27 01:29:00,21.6,17.5,30.39,East,90,1.0,2.0,84,0.00,,---,0.00,VWS V14.01,2013-01-27 06:29:00,
2013-01-27 01:34:00,21.7,17.3,30.39,East,90,0.0,1.0,83,0.00,,---,0.00,VWS V14.01,2013-01-27 06:34:00,
2013-01-27 01:39:00,21.4,17.0,30.39,East,90,1.0,1.0,83,0.00,,---,0.00,VWS V14.01,2013-01-27 06:39:00,
2013-01-27 01:45:00,21.2,17.1,30.39,East,90,2.0,2.0,84,0.00,,---,0.00,VWS V14.01,2013-01-27 06:45:00,
2013-01-27 01:50:00,21.5,17.4,30.39,East,90,0.0,3.0,84,0.00,,---,0.00,VWS V14.01,2013-01-27 06:50:00,
2013-01-27 01:55:00,21.7,17.6,30.39,East,90,0.0,3.0,84,0.00,,---,0.00,VWS V14.01,2013-01-27 06:55:00,
2013-01-27 02:00:00,21.8,17.7,30.38,East,90,0.0,3.0,84,0.00,,---,0.00,VWS V14.01,2013-01-27 07:00:00,
2013-01-27 02:05:00,22.2,18.1,30.39,East,90,1.0,1.0,84,0.00,,---,0.00,VWS V14.01,2013-01-27 07:05:00,
2013-01-27 02:15:00,22.7,18.3,30.38,East,98,1.0,3.0,83,0.00,,---,0.00,VWS V14.01,2013-01-27 07:15:00,
2013-01-27 02:20:00,22.5,18.1,30.39,East,98,0.0,3.0,83,0.00,,---,0.00,VWS V14.01,2013-01-27 07:20:00,
2013-01-27 02:25:00,22.0,17.6,30.38,East,98,0.0,3.0,83,0.00,,---,0.00,VWS V14.01,2013-01-27 07:25:00,
2013-01-27 02:30:00,21.6,17.2,30.40,East,98,0.0,3.0,83,0.00,,---,0.00,VWS V14.01,2013-01-27 07:30:00,
2013-01-27 02:35:00,21.5,17.4,30.39,East,98,0.0,1.0,84,0.00,,---,0.00,VWS V14.01,2013-01-27 07:35:00,
2013-01-27 02:40:00,21.4,17.0,30.39,East,98,1.0,2.0,83,0.00,,---,0.00,VWS V14.01,2013-01-27 07:40:00,
2013-01-27 02:45:00,21.2,17.1,30.39,East,98,0.0,2.0,84,0.00,,---,0.00,VWS V14.01,2013-01-27 07:45:00,
2013-01-27 02:50:00,20.9,16.8,30.39,East,98,0.0,2.0,84,0.00,,---,0.00,VWS V14.01,2013-01-27 07:50:00,
2013-01-27 02:55:00,20.8,16.7,30.40,East,98,0.0,2.0,84,0.00,,---,0.00,VWS V14.01,2013-01-27 07:55:00,
2013-01-27 03:00:00,20.9,17.1,30.40,East,98,0.0,2.0,85,0.00,,---,0.00,VWS V14.01,2013-01-27 08:00:00,
2013-01-27 03:05:00,20.9,16.8,30.40,East,98,0.0,0.0,84,0.00,,---,0.00,VWS V14.01,2013-01-27 08:05:00,
2013-01-27 03:10:00,20.7,16.9,30.40,East,98,0.0,1.0,85,0.00,,---,0.00,VWS V14.01,2013-01-27 08:10:00,
2013-01-27 03:15:00,21.1,17.6,30.40,East,98,0.0,2.0,86,0.00,,---,0.00,VWS V14.01,2013-01-27 08:15:00,
2013-01-27 03:20:00,21.5,17.7,30.40,East,98,0.0,2.0,85,0.00,,---,0.00,VWS V14.01,2013-01-27 08:20:00,
2013-01-27 03:25:00,21.8,18.0,30.40,East,98,0.0,2.0,85,0.00,,---,0.00,VWS V14.01,2013-01-27 08:25:00,
2013-01-27 03:30:00,22.1,18.0,30.40,ESE,105,0.0,0.0,84,0.00,,---,0.00,VWS V14.01,2013-01-27 08:30:00,
2013-01-27 03:35:00,22.2,18.1,30.41,ESE,105,0.0,2.0,84,0.00,,---,0.00,VWS V14.01,2013-01-27 08:35:00,
2013-01-27 03:40:00,22.3,17.9,30.40,ESE,105,0.0,2.0,83,0.00,,---,0.00,VWS V14.01,2013-01-27 08:40:00,
2013-01-27 03:45:00,22.3,17.9,30.40,ESE,105,0.0,2.0,83,0.00,,---,0.00,VWS V14.01,2013-01-27 08:45:00,
2013-01-27 03:50:00,22.4,18.3,30.40,ESE,105,0.0,2.0,84,0.00,,---,0.00,VWS V14.01,2013-01-27 08:50:00,
2013-01-27 03:55:00,22.5,18.4,30.39,ESE,105,0.0,2.0,84,0.00,,---,0.00,VWS V14.01,2013-01-27 08:55:00,
2013-01-27 04:00:00,22.6,18.5,30.39,ESE,105,1.0,1.0,84,0.00,,---,0.00,VWS V14.01,2013-01-27 09:00:00,
2013-01-27 04:05:00,22.6,18.2,30.39,SSE,148,2.0,3.0,83,0.00,,---,0.00,VWS V14.01,2013-01-27 09:05:00,
2013-01-27 04:10:00,22.6,18.2,30.39,SSE,168,1.0,4.0,83,0.00,,---,0.00,VWS V14.01,2013-01-27 09:10:00,
2013-01-27 04:15:00,22.6,17.9,30.39,South,171,2.0,5.0,82,0.00,,---,0.00,VWS V14.01,2013-01-27 09:15:00,
2013-01-27 04:20:00,22.6,17.9,30.40,SSW,197,1.0,5.0,82,0.00,,---,0.00,VWS V14.01,2013-01-27 09:20:00,
2013-01-27 04:25:00,22.7,18.0,30.39,SSW,194,1.0,5.0,82,0.00,,---,0.00,VWS V14.01,2013-01-27 09:25:00,
2013-01-27 04:30:00,22.7,18.0,30.39,South,187,0.0,0.0,82,0.00,,---,0.00,VWS V14.01,2013-01-27 09:30:00,
2013-01-27 04:35:00,22.7,18.0,30.40,South,187,0.0,2.0,82,0.00,,---,0.00,VWS V14.01,2013-01-27 09:35:00,
2013-01-27 04:40:00,22.7,18.0,30.40,South,186,2.0,2.0,82,0.00,,---,0.00,VWS V14.01,2013-01-27 09:40:00,
2013-01-27 04:45:00,22.7,18.0,30.40,South,186,1.0,2.0,82,0.00,,---,0.00,VWS V14.01,2013-01-27 09:45:00,
2013-01-27 04:50:00,22.7,17.8,30.40,South,186,2.0,3.0,81,0.00,,---,0.00,VWS V14.01,2013-01-27 09:50:00,
2013-01-27 04:55:00,22.6,17.7,30.40,South,186,0.0,3.0,81,0.00,,---,0.00,VWS V14.01,2013-01-27 09:55:00,
2013-01-27 05:00:00,22.3,17.4,30.40,South,186,1.0,1.0,81,0.00,,---,0.00,VWS V14.01,2013-01-27 10:00:00,
2013-01-27 05:05:00,22.2,17.3,30.40,South,186,0.0,2.0,81,0.00,,---,0.00,VWS V14.01,2013-01-27 10:05:00,
2013-01-27 05:10:00,22.0,17.4,30.40,South,185,1.0,2.0,82,0.00,,---,0.00,VWS V14.01,2013-01-27 10:10:00,
2013-01-27 05:15:00,21.9,17.3,30.40,South,185,0.0,2.0,82,0.00,,---,0.00,VWS V14.01,2013-01-27 10:15:00,
2013-01-27 05:20:00,21.8,17.2,30.39,South,185,1.0,2.0,82,0.00,,---,0.00,VWS V14.01,2013-01-27 10:20:00,
2013-01-27 05:25:00,21.7,17.1,30.39,East,88,0.0,2.0,82,0.00,,---,0.00,VWS V14.01,2013-01-27 10:25:00,
2013-01-27 05:30:00,21.5,17.1,30.40,SE,140,0.0,2.0,83,0.00,,---,0.00,VWS V14.01,2013-01-27 10:30:00,
2013-01-27 05:35:00,21.6,17.2,30.40,East,93,0.0,2.0,83,0.00,,---,0.00,VWS V14.01,2013-01-27 10:35:00,
2013-01-27 05:40:00,21.7,17.3,30.40,SSE,153,2.0,2.0,83,0.00,,---,0.00,VWS V14.01,2013-01-27 10:40:00,
2013-01-27 05:45:00,21.8,17.4,30.40,SSE,161,1.0,2.0,83,0.00,,---,0.00,VWS V14.01,2013-01-27 10:45:00,
2013-01-27 05:50:00,21.9,17.5,30.40,SE,130,1.0,4.0,83,0.00,,---,0.00,VWS V14.01,2013-01-27 10:50:00,
2013-01-27 05:55:00,22.0,17.4,30.40,SE,138,1.0,4.0,82,0.00,,---,0.00,VWS V14.01,2013-01-27 10:55:00,
2013-01-27 06:00:00,22.2,17.5,30.40,SE,140,0.0,0.0,82,0.00,,---,0.00,VWS V14.01,2013-01-27 11:00:00,
2013-01-27 06:05:00,22.3,17.6,30.40,SE,141,2.0,2.0,82,0.00,,---,0.00,VWS V14.01,2013-01-27 11:05:00,
2013-01-27 06:10:00,22.4,17.8,30.39,SE,130,0.0,3.0,82,0.00,,---,0.00,VWS V14.01,2013-01-27 11:10:00,
2013-01-27 06:15:00,22.5,17.9,30.39,SSE,150,0.0,3.0,82,0.00,,---,0.00,VWS V14.01,2013-01-27 11:15:00,
2013-01-27 06:20:00,22.5,17.9,30.39,SSE,161,2.0,3.0,82,0.00,,---,0.00,VWS V14.01,2013-01-27 11:20:00,
2013-01-27 06:25:00,22.6,17.9,30.39,SE,141,0.0,3.0,82,0.00,,---,0.00,VWS V14.01,2013-01-27 11:25:00,
2013-01-27 06:30:00,22.5,18.1,30.38,SE,141,2.0,2.0,83,0.00,,---,0.00,VWS V14.01,2013-01-27 11:30:00,
2013-01-27 06:35:00,22.5,18.1,30.38,SE,140,1.0,5.0,83,0.00,,---,0.00,VWS V14.01,2013-01-27 11:35:00,
2013-01-27 06:40:00,22.5,18.1,30.38,SE,140,0.0,5.0,83,0.00,,---,0.00,VWS V14.01,2013-01-27 11:40:00,
2013-01-27 06:45:00,22.4,18.0,30.38,SE,127,1.0,5.0,83,0.00,,---,0.00,VWS V14.01,2013-01-27 11:45:00,
2013-01-27 06:50:00,22.2,17.8,30.38,SSE,153,0.0,5.0,83,0.00,,---,0.00,VWS V14.01,2013-01-27 11:50:00,
2013-01-27 06:55:00,22.0,17.6,30.38,SSE,154,1.0,5.0,83,0.00,,---,0.00,VWS V14.01,2013-01-27 11:55:00,
2013-01-27 07:00:00,21.7,17.3,30.38,SSE,154,0.0,0.0,83,0.00,,---,0.00,VWS V14.01,2013-01-27 12:00:00,
2013-01-27 07:05:00,21.5,17.1,30.39,SSE,149,0.0,4.0,83,0.00,,---,0.00,VWS V14.01,2013-01-27 12:05:00,
2013-01-27 07:10:00,21.4,17.0,30.39,South,169,1.0,4.0,83,0.00,,---,0.00,VWS V14.01,2013-01-27 12:10:00,
2013-01-27 07:15:00,21.2,16.9,30.38,SSE,165,0.0,4.0,83,0.00,,---,0.00,VWS V14.01,2013-01-27 12:15:00,
2013-01-27 07:20:00,21.1,16.8,30.39,SSE,156,1.0,4.0,83,0.00,,---,0.00,VWS V14.01,2013-01-27 12:20:00,
2013-01-27 07:26:00,21.1,17.0,30.39,SSE,156,0.0,4.0,84,0.00,,---,0.00,VWS V14.01,2013-01-27 12:26:00,
2013-01-27 07:31:00,21.0,16.9,30.40,SSE,156,0.0,1.0,84,0.00,,---,0.00,VWS V14.01,2013-01-27 12:31:00,
2013-01-27 07:36:00,21.1,17.0,30.40,SSE,156,1.0,2.0,84,0.00,,---,0.00,VWS V14.01,2013-01-27 12:36:00,
2013-01-27 07:41:00,21.2,17.1,30.39,SSE,156,0.0,2.0,84,0.00,,---,0.00,VWS V14.01,2013-01-27 12:41:00,
2013-01-27 07:46:00,21.1,17.0,30.39,SE,134,0.0,4.0,84,0.00,,---,0.00,VWS V14.01,2013-01-27 12:46:00,
2013-01-27 07:51:00,21.1,17.0,30.39,SSE,164,0.0,4.0,84,0.00,,---,0.00,VWS V14.01,2013-01-27 12:51:00,
2013-01-27 07:56:00,20.9,16.8,30.40,SSE,148,0.0,4.0,84,0.00,,---,0.00,VWS V14.01,2013-01-27 12:56:00,
2013-01-27 08:01:00,20.8,16.7,30.40,SE,130,0.0,1.0,84,0.00,,---,0.00,VWS V14.01,2013-01-27 13:01:00,
2013-01-27 08:06:00,20.8,16.7,30.39,SE,143,1.0,2.0,84,0.00,,---,0.00,VWS V14.01,2013-01-27 13:06:00,
2013-01-27 08:11:00,21.0,17.2,30.39,South,180,0.0,5.0,85,0.00,,---,0.00,VWS V14.01,2013-01-27 13:11:00,
2013-01-27 08:16:00,21.2,17.4,30.39,SSE,155,2.0,5.0,85,0.00,,---,0.00,VWS V14.01,2013-01-27 13:16:00,
2013-01-27 08:21:00,21.5,17.4,30.40,SE,145,3.0,7.0,84,0.00,,---,0.00,VWS V14.01,2013-01-27 13:21:00,
2013-01-27 08:26:00,21.6,17.5,30.39,ESE,123,0.0,7.0,84,0.00,,---,0.00,VWS V14.01,2013-01-27 13:26:00,
2013-01-27 08:31:00,21.9,17.8,30.40,ESE,117,0.0,3.0,84,0.00,,---,0.00,VWS V14.01,2013-01-27 13:31:00,
2013-01-27 08:36:00,22.1,18.0,30.40,SSE,152,1.0,4.0,84,0.00,,---,0.00,VWS V14.01,2013-01-27 13:36:00,
2013-01-27 08:41:00,22.2,17.8,30.40,SSE,153,3.0,6.0,83,0.00,,---,0.00,VWS V14.01,2013-01-27 13:41:00,
2013-01-27 08:46:00,22.3,17.9,30.40,East,88,1.0,6.0,83,0.00,,---,0.00,VWS V14.01,2013-01-27 13:46:00,
2013-01-27 08:51:00,22.3,17.9,30.40,SE,139,2.0,6.0,83,0.00,,---,0.00,VWS V14.01,2013-01-27 13:51:00,
2013-01-27 08:56:00,22.5,17.9,30.39,SE,145,2.0,6.0,82,0.00,,---,0.00,VWS V14.01,2013-01-27 13:56:00,
2013-01-27 09:01:00,22.6,17.9,30.39,SSE,150,1.0,2.0,82,0.00,,---,0.00,VWS V14.01,2013-01-27 14:01:00,
2013-01-27 09:06:00,22.8,17.9,30.39,SSE,148,2.0,6.0,81,0.00,,---,0.00,VWS V14.01,2013-01-27 14:06:00,
2013-01-27 09:11:00,23.1,18.1,30.39,SSE,159,0.0,6.0,81,0.00,,---,0.00,VWS V14.01,2013-01-27 14:11:00,
2013-01-27 09:16:00,23.5,18.5,30.39,SE,146,3.0,7.0,81,0.00,,---,0.00,VWS V14.01,2013-01-27 14:16:00,
2013-01-27 09:21:00,23.7,18.5,30.39,SE,144,2.0,9.0,80,0.00,,---,0.00,VWS V14.01,2013-01-27 14:21:00,
2013-01-27 09:26:00,23.9,18.6,30.39,SSE,156,2.0,9.0,80,0.00,,---,0.00,VWS V14.01,2013-01-27 14:26:00,
2013-01-27 09:31:00,24.2,18.9,30.39,SSW,192,4.0,7.0,80,0.00,,---,0.00,VWS V14.01,2013-01-27 14:31:00,
2013-01-27 09:36:00,24.2,18.6,30.39,SW,219,3.0,7.0,79,0.00,,---,0.00,VWS V14.01,2013-01-27 14:36:00,
2013-01-27 09:41:00,24.2,18.6,30.40,SE,144,2.0,7.0,79,0.00,,---,0.00,VWS V14.01,2013-01-27 14:41:00,
2013-01-27 09:46:00,24.4,18.8,30.39,SSE,161,2.0,7.0,79,0.00,,---,0.00,VWS V14.01,2013-01-27 14:46:00,
2013-01-27 09:51:00,24.7,19.4,30.38,South,176,2.0,7.0,80,0.00,,---,0.00,VWS V14.01,2013-01-27 14:51:00,
2013-01-27 09:56:00,24.8,19.2,30.38,SSE,154,2.0,7.0,79,0.00,,---,0.00,VWS V14.01,2013-01-27 14:56:00,
2013-01-27 10:01:00,25.0,19.1,30.38,SSE,153,0.0,1.0,78,0.00,,---,0.00,VWS V14.01,2013-01-27 15:01:00,
2013-01-27 10:06:00,25.1,19.2,30.38,SSE,159,3.0,4.0,78,0.00,,---,0.00,VWS V14.01,2013-01-27 15:06:00,
2013-01-27 10:11:00,25.1,19.2,30.38,South,173,2.0,6.0,78,0.00,,---,0.00,VWS V14.01,2013-01-27 15:11:00,
2013-01-27 10:16:00,25.2,19.3,30.38,SW,219,2.0,6.0,78,0.00,,---,0.00,VWS V14.01,2013-01-27 15:16:00,
2013-01-27 10:21:00,25.2,19.3,30.38,SSE,150,2.0,6.0,78,0.00,,---,0.00,VWS V14.01,2013-01-27 15:21:00,
2013-01-27 10:26:00,25.2,19.3,30.39,SE,144,0.0,6.0,78,0.00,,---,0.00,VWS V14.01,2013-01-27 15:26:00,
2013-01-27 10:31:00,25.3,19.4,30.39,SSE,157,0.0,2.0,78,0.00,,---,0.00,VWS V14.01,2013-01-27 15:31:00,
2013-01-27 10:36:00,25.3,19.4,30.39,SE,146,1.0,5.0,78,0.00,,---,0.00,VWS V14.01,2013-01-27 15:36:00,
2013-01-27 10:41:00,25.4,19.5,30.40,South,182,1.0,5.0,78,0.00,,---,0.00,VWS V14.01,2013-01-27 15:41:00,
2013-01-27 10:46:00,25.5,19.6,30.40,SE,144,1.0,5.0,78,0.00,,---,0.00,VWS V14.01,2013-01-27 15:46:00,
2013-01-27 10:51:00,25.7,19.8,30.40,SSE,150,3.0,5.0,78,0.00,,---,0.00,VWS V14.01,2013-01-27 15:51:00,
2013-01-27 10:56:00,25.8,19.9,30.40,SSE,150,1.0,5.0,78,0.00,,---,0.00,VWS V14.01,2013-01-27 15:56:00,
2013-01-27 11:01:00,26.0,20.1,30.40,ENE,71,1.0,3.0,78,0.00,,---,0.00,VWS V14.01,2013-01-27 16:01:00,
2013-01-27 11:06:00,26.2,20.0,30.39,SE,139,1.0,3.0,77,0.00,,---,0.00,VWS V14.01,2013-01-27 16:06:00,
2013-01-27 11:11:00,26.7,20.8,30.39,SE,136,1.0,3.0,78,0.00,,---,0.00,VWS V14.01,2013-01-27 16:11:00,
2013-01-27 11:16:00,26.9,20.4,30.39,ENE,59,2.0,5.0,76,0.00,,---,0.00,VWS V14.01,2013-01-27 16:16:00,
2013-01-27 11:21:00,27.0,20.8,30.38,ENE,78,0.0,5.0,77,0.00,,---,0.00,VWS V14.01,2013-01-27 16:21:00,
2013-01-27 11:26:00,26.9,20.4,30.38,SE,143,1.0,6.0,76,0.00,,---,0.00,VWS V14.01,2013-01-27 16:26:00,
2013-01-27 11:31:00,27.3,21.1,30.38,SE,144,0.0,5.0,77,0.00,,---,0.00,VWS V14.01,2013-01-27 16:31:00,
2013-01-27 11:36:00,27.6,21.0,30.38,SSE,150,4.0,5.0,76,0.00,,---,0.00,VWS V14.01,2013-01-27 16:36:00,
2013-01-27 11:41:00,27.6,21.0,30.38,SSW,211,4.0,5.0,76,0.00,,---,0.00,VWS V14.01,2013-01-27 16:41:00,
2013-01-27 11:46:00,27.9,21.3,30.38,SSE,167,5.0,6.0,76,0.00,,---,0.00,VWS V14.01,2013-01-27 16:46:00,
2013-01-27 11:51:00,28.0,21.7,30.38,SSE,151,0.0,6.0,77,0.00,,---,0.00,VWS V14.01,2013-01-27 16:51:00,
2013-01-27 11:56:00,28.5,21.6,30.38,ENE,78,4.0,6.0,75,0.00,,---,0.00,VWS V14.01,2013-01-27 16:56:00,
2013-01-27 12:01:00,28.3,21.1,30.37,South,173,1.0,5.0,74,0.00,,---,0.00,VWS V14.01,2013-01-27 17:01:00,
2013-01-27 12:06:00,28.5,21.3,30.37,SSE,155,3.0,5.0,74,0.00,,---,0.00,VWS V14.01,2013-01-27 17:06:00,
2013-01-27 12:11:00,28.6,21.7,30.36,SW,225,2.0,5.0,75,0.00,,---,0.00,VWS V14.01,2013-01-27 17:11:00,
2013-01-27 12:16:00,28.5,21.6,30.36,SE,136,1.0,6.0,75,0.00,,---,0.00,VWS V14.01,2013-01-27 17:16:00,
2013-01-27 12:21:00,28.7,21.8,30.35,South,182,1.0,6.0,75,0.00,,---,0.00,VWS V14.01,2013-01-27 17:21:00,
2013-01-27 12:26:00,28.9,22.0,30.35,SE,144,1.0,6.0,75,0.00,,---,0.00,VWS V14.01,2013-01-27 17:26:00,
2013-01-27 12:31:00,29.1,22.5,30.35,SSE,161,2.0,2.0,76,0.00,,---,0.00,VWS V14.01,2013-01-27 17:31:00,
2013-01-27 12:36:00,29.1,22.2,30.36,South,171,0.0,5.0,75,0.00,,---,0.00,VWS V14.01,2013-01-27 17:36:00,
2013-01-27 12:41:00,29.2,22.3,30.35,SE,144,3.0,5.0,75,0.00,,---,0.00,VWS V14.01,2013-01-27 17:41:00,
2013-01-27 12:46:00,29.1,21.9,30.35,SSE,161,1.0,5.0,74,0.00,,---,0.00,VWS V14.01,2013-01-27 17:46:00,
2013-01-27 12:51:00,29.2,22.3,30.35,South,188,1.0,5.0,75,0.00,,---,0.00,VWS V14.01,2013-01-27 17:51:00,
2013-01-27 12:56:00,29.4,22.5,30.35,South,176,1.0,5.0,75,0.00,,---,0.00,VWS V14.01,2013-01-27 17:56:00,
2013-01-27 13:01:00,29.5,22.6,30.34,South,185,2.0,3.0,75,0.00,,---,0.00,VWS V14.01,2013-01-27 18:01:00,
2013-01-27 13:06:00,29.4,22.5,30.34,SSE,164,0.0,3.0,75,0.00,,---,0.00,VWS V14.01,2013-01-27 18:06:00,
2013-01-27 13:11:00,29.4,22.5,30.33,SSE,159,2.0,5.0,75,0.00,,---,0.00,VWS V14.01,2013-01-27 18:11:00,
2013-01-27 13:16:00,29.6,22.7,30.32,SSE,148,1.0,5.0,75,0.00,,---,0.00,VWS V14.01,2013-01-27 18:16:00,
2013-01-27 13:21:00,29.7,22.4,30.32,SE,127,1.0,5.0,74,0.00,,---,0.00,VWS V14.01,2013-01-27 18:21:00,
2013-01-27 13:26:00,29.6,23.0,30.32,SE,144,0.0,5.0,76,0.00,,---,0.00,VWS V14.01,2013-01-27 18:26:00,
2013-01-27 13:31:00,29.6,22.7,30.31,SE,142,0.0,5.0,75,0.00,,---,0.00,VWS V14.01,2013-01-27 18:31:00,
2013-01-27 13:36:00,29.6,22.7,30.31,SE,142,0.0,5.0,75,0.00,,---,0.00,VWS V14.01,2013-01-27 18:36:00,
2013-01-27 13:41:00,30.0,23.4,30.31,South,176,2.0,5.0,76,0.00,,---,0.00,VWS V14.01,2013-01-27 18:41:00,
2013-01-27 13:46:00,30.3,23.3,30.30,ESE,123,1.0,5.0,75,0.00,,---,0.00,VWS V14.01,2013-01-27 18:46:00,
2013-01-27 13:51:00,30.6,23.6,30.30,South,187,0.0,5.0,75,0.00,,---,0.00,VWS V14.01,2013-01-27 18:51:00,
2013-01-27 13:56:00,30.6,23.3,30.29,ESE,103,0.0,5.0,74,0.00,,---,0.00,VWS V14.01,2013-01-27 18:56:00,
2013-01-27 14:01:00,30.6,23.6,30.28,SSE,152,2.0,3.0,75,0.00,,---,0.00,VWS V14.01,2013-01-27 19:01:00,
2013-01-27 14:06:00,30.5,23.5,30.27,East,90,2.0,6.0,75,0.00,,---,0.00,VWS V14.01,2013-01-27 19:06:00,
2013-01-27 14:11:00,30.5,23.5,30.27,NE,55,1.0,6.0,75,0.00,,---,0.00,VWS V14.01,2013-01-27 19:11:00,
2013-01-27 14:16:00,30.4,24.1,30.27,SSE,151,2.0,6.0,77,0.00,,---,0.00,VWS V14.01,2013-01-27 19:16:00,
2013-01-27 14:21:00,30.2,23.2,30.26,ESE,119,0.0,6.0,75,0.00,,---,0.00,VWS V14.01,2013-01-27 19:21:00,
2013-01-27 14:27:00,30.1,23.5,30.25,ESE,114,2.0,6.0,76,0.00,,---,0.00,VWS V14.01,2013-01-27 19:27:00,
2013-01-27 14:32:00,30.3,23.7,30.25,SE,140,3.0,3.0,76,0.00,,---,0.00,VWS V14.01,2013-01-27 19:32:00,
2013-01-27 14:37:00,30.4,23.4,30.25,SSE,152,0.0,5.0,75,0.00,,---,0.00,VWS V14.01,2013-01-27 19:37:00,
2013-01-27 14:42:00,30.7,23.7,30.24,SSE,163,2.0,6.0,75,0.00,,---,0.00,VWS V14.01,2013-01-27 19:42:00,
2013-01-27 14:47:00,31.0,24.3,30.24,South,173,4.0,7.0,76,0.00,,---,0.00,VWS V14.01,2013-01-27 19:47:00,
2013-01-27 14:52:00,31.2,24.2,30.26,SSE,157,0.0,7.0,75,0.00,,---,0.00,VWS V14.01,2013-01-27 19:52:00,
2013-01-27 14:57:00,31.1,23.8,30.26,SSE,161,2.0,7.0,74,0.00,,---,0.00,VWS V14.01,2013-01-27 19:57:00,
2013-01-27 15:02:00,31.2,24.5,30.25,SE,132,1.0,3.0,76,0.00,,---,0.00,VWS V14.01,2013-01-27 20:02:00,
2013-01-27 15:07:00,31.2,23.9,30.26,SE,143,0.0,5.0,74,0.00,,---,0.00,VWS V14.01,2013-01-27 20:07:00,
2013-01-27 15:12:00,31.2,24.2,30.26,SE,130,2.0,6.0,75,0.00,,---,0.00,VWS V14.01,2013-01-27 20:12:00,
2013-01-27 15:17:00,31.4,24.1,30.25,SSE,148,2.0,6.0,74,0.00,,---,0.00,VWS V14.01,2013-01-27 20:17:00,
2013-01-27 15:22:00,31.2,23.9,30.25,East,85,1.0,6.0,74,0.00,,---,0.00,VWS V14.01,2013-01-27 20:22:00,
2013-01-27 15:27:00,31.0,23.7,30.25,SSE,152,0.0,7.0,74,0.00,,---,0.00,VWS V14.01,2013-01-27 20:27:00,
2013-01-27 15:32:00,30.8,23.5,30.24,ESE,103,1.0,3.0,74,0.00,,---,0.00,VWS V14.01,2013-01-27 20:32:00,
2013-01-27 15:37:00,30.8,23.8,30.24,East,97,3.0,6.0,75,0.00,,---,0.00,VWS V14.01,2013-01-27 20:37:00,
2013-01-27 15:42:00,30.7,24.0,30.23,South,173,2.0,6.0,76,0.00,,---,0.00,VWS V14.01,2013-01-27 20:42:00,
2013-01-27 15:47:00,30.7,23.7,30.24,East,96,1.0,6.0,75,0.00,,---,0.00,VWS V14.01,2013-01-27 20:47:00,
2013-01-27 15:52:00,30.7,23.7,30.24,ESE,116,2.0,6.0,75,0.00,,---,0.00,VWS V14.01,2013-01-27 20:52:00,
2013-01-27 15:57:00,30.8,23.8,30.24,SE,145,1.0,9.0,75,0.00,,---,0.00,VWS V14.01,2013-01-27 20:57:00,
2013-01-27 16:02:00,30.8,23.8,30.25,SSE,161,1.0,3.0,75,0.00,,---,0.00,VWS V14.01,2013-01-27 21:02:00,
2013-01-27 16:07:00,30.8,24.1,30.25,South,173,0.0,5.0,76,0.00,,---,0.00,VWS V14.01,2013-01-27 21:07:00,
2013-01-27 16:12:00,30.8,24.1,30.24,ENE,69,1.0,5.0,76,0.00,,---,0.00,VWS V14.01,2013-01-27 21:12:00,
2013-01-27 16:17:00,30.8,24.1,30.23,SSE,152,0.0,6.0,76,0.00,,---,0.00,VWS V14.01,2013-01-27 21:17:00,
2013-01-27 16:22:00,30.8,24.1,30.23,NE,53,2.0,6.0,76,0.00,,---,0.00,VWS V14.01,2013-01-27 21:22:00,
2013-01-27 16:27:00,30.8,23.8,30.23,East,96,2.0,6.0,75,0.00,,---,0.00,VWS V14.01,2013-01-27 21:27:00,
2013-01-27 16:32:00,30.8,24.1,30.22,NE,54,3.0,5.0,76,0.00,,---,0.00,VWS V14.01,2013-01-27 21:32:00,
2013-01-27 16:37:00,30.8,24.5,30.21,NE,36,4.0,7.0,77,0.00,,---,0.00,VWS V14.01,2013-01-27 21:37:00,
2013-01-27 16:42:00,30.7,24.4,30.21,ESE,108,0.0,8.0,77,0.00,,---,0.00,VWS V14.01,2013-01-27 21:42:00,
2013-01-27 16:47:00,30.8,24.5,30.22,East,84,3.0,8.0,77,0.00,,---,0.00,VWS V14.01,2013-01-27 21:47:00,
2013-01-27 16:52:00,30.8,24.5,30.21,East,86,1.0,8.0,77,0.00,,---,0.00,VWS V14.01,2013-01-27 21:52:00,
2013-01-27 16:57:00,30.9,24.9,30.20,NW,316,2.0,8.0,78,0.00,,---,0.00,VWS V14.01,2013-01-27 21:57:00,
2013-01-27 17:02:00,30.8,24.1,30.19,East,101,3.0,6.0,76,0.00,,---,0.00,VWS V14.01,2013-01-27 22:02:00,
2013-01-27 17:07:00,30.7,24.4,30.18,South,169,3.0,6.0,77,0.00,,---,0.00,VWS V14.01,2013-01-27 22:07:00,
2013-01-27 17:12:00,30.6,24.3,30.19,East,94,3.0,6.0,77,0.00,,---,0.00,VWS V14.01,2013-01-27 22:12:00,
2013-01-27 17:17:00,30.5,24.2,30.19,SSE,164,1.0,6.0,77,0.00,,---,0.00,VWS V14.01,2013-01-27 22:17:00,
2013-01-27 17:22:00,30.5,24.2,30.20,SE,138,1.0,6.0,77,0.00,,---,0.00,VWS V14.01,2013-01-27 22:22:00,
2013-01-27 17:27:00,30.5,24.2,30.21,SE,142,0.0,6.0,77,0.00,,---,0.00,VWS V14.01,2013-01-27 22:27:00,
2013-01-27 17:32:00,30.5,24.2,30.21,ESE,115,0.0,3.0,77,0.00,,---,0.00,VWS V14.01,2013-01-27 22:32:00,
2013-01-27 17:37:00,30.5,24.2,30.22,East,96,0.0,5.0,77,0.00,,---,0.00,VWS V14.01,2013-01-27 22:37:00,
2013-01-27 17:42:00,30.5,24.2,30.23,SSE,151,1.0,5.0,77,0.00,,---,0.00,VWS V14.01,2013-01-27 22:42:00,
2013-01-27 17:47:00,30.4,24.1,30.23,East,91,1.0,5.0,77,0.00,,---,0.00,VWS V14.01,2013-01-27 22:47:00,
2013-01-27 17:52:00,30.4,24.7,30.23,ESE,123,3.0,5.0,79,0.00,,---,0.00,VWS V14.01,2013-01-27 22:52:00,
2013-01-27 17:57:00,30.4,24.4,30.22,East,94,3.0,5.0,78,0.00,,---,0.00,VWS V14.01,2013-01-27 22:57:00,
2013-01-27 18:02:00,30.4,24.1,30.21,East,80,1.0,5.0,77,0.00,,---,0.00,VWS V14.01,2013-01-27 23:02:00,
2013-01-27 18:07:00,30.4,24.4,30.21,ESE,116,7.0,7.0,78,0.00,,---,0.00,VWS V14.01,2013-01-27 23:07:00,
2013-01-27 18:12:00,30.4,24.4,30.22,SE,136,1.0,7.0,78,0.00,,---,0.00,VWS V14.01,2013-01-27 23:12:00,
2013-01-27 18:17:00,30.4,24.7,30.22,ESE,108,1.0,7.0,79,0.00,,---,0.00,VWS V14.01,2013-01-27 23:17:00,
2013-01-27 18:22:00,30.4,24.7,30.24,East,94,1.0,7.0,79,0.00,,---,0.00,VWS V14.01,2013-01-27 23:22:00,
2013-01-27 18:27:00,30.3,24.9,30.24,East,96,0.0,7.0,80,0.00,,---,0.00,VWS V14.01,2013-01-27 23:27:00,
2013-01-27 18:32:00,30.4,25.0,30.24,ESE,115,3.0,5.0,80,0.00,,---,0.00,VWS V14.01,2013-01-27 23:32:00,
2013-01-27 18:37:00,30.3,25.2,30.25,ESE,112,1.0,5.0,81,0.00,,---,0.00,VWS V14.01,2013-01-27 23:37:00,
2013-01-27 18:42:00,30.3,25.5,30.24,East,94,2.0,6.0,82,0.00,,---,0.00,VWS V14.01,2013-01-27 23:42:00,
2013-01-27 18:47:00,30.2,25.4,30.22,East,86,2.0,6.0,82,0.00,,---,0.00,VWS V14.01,2013-01-27 23:47:00,
2013-01-27 18:52:00,30.1,25.9,30.22,SSE,167,2.0,6.0,84,0.00,,---,0.00,VWS V14.01,2013-01-27 23:52:00,
2013-01-27 18:57:00,30.1,26.1,30.22,East,85,2.0,6.0,85,0.00,,---,0.00,VWS V14.01,2013-01-27 23:57:00,
2013-01-27 19:02:00,30.2,26.5,30.20,SE,128,2.0,6.0,86,0.00,,---,0.00,VWS V14.01,2013-01-28 00:02:00,
2013-01-27 19:07:00,30.2,26.8,30.19,ESE,118,10.0,10.0,87,0.00,,---,0.00,VWS V14.01,2013-01-28 00:07:00,
2013-01-27 19:12:00,30.2,26.8,30.20,ESE,121,1.0,10.0,87,0.00,,---,0.00,VWS V14.01,2013-01-28 00:12:00,
2013-01-27 19:17:00,30.2,27.1,30.18,ENE,75,1.0,10.0,88,0.00,,---,0.00,VWS V14.01,2013-01-28 00:17:00,
2013-01-27 19:22:00,30.3,27.2,30.18,ENE,64,2.0,10.0,88,0.00,,---,0.00,VWS V14.01,2013-01-28 00:22:00,
2013-01-27 19:27:00,30.4,27.3,30.18,West,279,2.0,10.0,88,0.00,,---,0.00,VWS V14.01,2013-01-28 00:27:00,
2013-01-27 19:32:00,30.4,27.0,30.19,ENE,63,2.0,5.0,87,0.00,,---,0.00,VWS V14.01,2013-01-28 00:32:00,
2013-01-27 19:37:00,30.5,27.4,30.19,East,82,6.0,7.0,88,0.00,,---,0.00,VWS V14.01,2013-01-28 00:37:00,
2013-01-27 19:42:00,30.5,27.4,30.20,NE,54,2.0,7.0,88,0.00,,---,0.00,VWS V14.01,2013-01-28 00:42:00,
2013-01-27 19:47:00,30.6,27.5,30.19,East,85,1.0,8.0,88,0.00,,---,0.00,VWS V14.01,2013-01-28 00:47:00,
2013-01-27 19:52:00,30.6,27.5,30.19,SE,128,2.0,8.0,88,0.00,,---,0.00,VWS V14.01,2013-01-28 00:52:00,
2013-01-27 19:57:00,30.6,27.8,30.17,ESE,117,2.0,8.0,89,0.00,,---,0.00,VWS V14.01,2013-01-28 00:57:00,
2013-01-27 20:03:00,30.7,27.9,30.18,East,93,5.0,9.0,89,0.00,,---,0.00,VWS V14.01,2013-01-28 01:03:00,
2013-01-27 20:08:00,30.8,28.0,30.17,SE,130,1.0,9.0,89,0.00,,---,0.00,VWS V14.01,2013-01-28 01:08:00,
2013-01-27 20:13:00,30.8,28.2,30.17,SE,140,5.0,9.0,90,0.00,,---,0.00,VWS V14.01,2013-01-28 01:13:00,
2013-01-27 20:18:00,30.8,28.0,30.17,East,98,1.0,10.0,89,0.00,,---,0.00,VWS V14.01,2013-01-28 01:18:00,
2013-01-27 20:23:00,30.7,27.9,30.16,SE,132,0.0,10.0,89,0.00,,---,0.00,VWS V14.01,2013-01-28 01:23:00,
2013-01-27 20:28:00,30.7,28.1,30.16,SE,136,1.0,10.0,90,0.00,,---,0.00,VWS V14.01,2013-01-28 01:28:00,
2013-01-27 20:33:00,30.6,28.0,30.13,NNE,23,2.0,10.0,90,0.00,,---,0.00,VWS V14.01,2013-01-28 01:33:00,
2013-01-27 20:38:00,30.6,28.0,30.13,East,99,0.0,10.0,90,0.00,,---,0.00,VWS V14.01,2013-01-28 01:38:00,
2013-01-27 20:43:00,30.6,28.3,30.13,ENE,66,3.0,10.0,91,0.00,,---,0.00,VWS V14.01,2013-01-28 01:43:00,
2013-01-27 20:48:00,30.5,28.2,30.11,NE,55,1.0,10.0,91,0.00,,---,0.00,VWS V14.01,2013-01-28 01:48:00,
2013-01-27 20:53:00,30.6,28.3,30.11,SSE,156,4.0,10.0,91,0.00,,---,0.00,VWS V14.01,2013-01-28 01:53:00,
2013-01-27 20:58:00,30.6,28.3,30.11,East,90,2.0,10.0,91,0.00,,---,0.00,VWS V14.01,2013-01-28 01:58:00,
2013-01-27 21:03:00,30.6,28.3,30.11,SE,131,1.0,6.0,91,0.00,,---,0.00,VWS V14.01,2013-01-28 02:03:00,
2013-01-27 21:08:00,30.6,28.3,30.10,SSE,157,4.0,7.0,91,0.00,,---,0.00,VWS V14.01,2013-01-28 02:08:00,
2013-01-27 21:13:00,30.6,28.3,30.10,SSE,163,2.0,9.0,91,0.00,,---,0.00,VWS V14.01,2013-01-28 02:13:00,
2013-01-27 21:18:00,30.7,28.4,30.09,SE,145,2.0,9.0,91,0.00,,---,0.00,VWS V14.01,2013-01-28 02:18:00,
2013-01-27 21:23:00,30.8,28.5,30.09,SSW,195,5.0,9.0,91,0.00,,---,0.00,VWS V14.01,2013-01-28 02:23:00,
2013-01-27 21:28:00,30.9,28.6,30.08,SE,140,5.0,9.0,91,0.00,,---,0.00,VWS V14.01,2013-01-28 02:28:00,
2013-01-27 21:33:00,31.0,28.7,30.08,SSE,155,2.0,6.0,91,0.00,,---,0.00,VWS V14.01,2013-01-28 02:33:00,
2013-01-27 21:38:00,31.1,28.8,30.08,East,82,2.0,6.0,91,0.00,,---,0.00,VWS V14.01,2013-01-28 02:38:00,
2013-01-27 21:43:00,31.2,28.9,30.08,South,173,3.0,8.0,91,0.00,,---,0.00,VWS V14.01,2013-01-28 02:43:00,
2013-01-27 21:48:00,31.2,28.9,30.08,SSE,154,0.0,8.0,91,0.00,,---,0.00,VWS V14.01,2013-01-28 02:48:00,
2013-01-27 21:53:00,31.3,29.0,30.07,SSE,161,2.0,8.0,91,0.00,,---,0.00,VWS V14.01,2013-01-28 02:53:00,
2013-01-27 21:58:00,31.5,29.5,30.06,ENE,76,2.0,9.0,92,0.00,,---,0.00,VWS V14.01,2013-01-28 02:58:00,
2013-01-27 22:03:00,31.6,29.3,30.05,SE,132,3.0,9.0,91,0.00,,---,0.00,VWS V14.01,2013-01-28 03:03:00,
2013-01-27 22:08:00,31.6,29.3,30.05,ESE,106,7.0,9.0,91,0.00,,---,0.00,VWS V14.01,2013-01-28 03:08:00,
2013-01-27 22:13:00,31.7,29.4,30.05,SE,143,3.0,9.0,91,0.00,,---,0.00,VWS V14.01,2013-01-28 03:13:00,
2013-01-27 22:18:00,31.7,29.6,30.05,ENE,65,3.0,11.0,92,0.00,,---,0.00,VWS V14.01,2013-01-28 03:18:00,
2013-01-27 22:23:00,32.0,29.9,30.04,SE,128,5.0,11.0,92,0.00,,---,0.00,VWS V14.01,2013-01-28 03:23:00,
2013-01-27 22:28:00,32.1,30.0,30.04,SE,144,3.0,11.0,92,0.00,,---,0.00,VWS V14.01,2013-01-28 03:28:00,
2013-01-27 22:33:00,32.2,30.1,30.04,SSE,151,2.0,5.0,92,0.00,,---,0.00,VWS V14.01,2013-01-28 03:33:00,
2013-01-27 22:38:00,32.4,30.3,30.04,ESE,111,2.0,7.0,92,0.00,,---,0.00,VWS V14.01,2013-01-28 03:38:00,
2013-01-27 22:43:00,32.5,30.4,30.06,SSE,160,2.0,10.0,92,0.00,,---,0.00,VWS V14.01,2013-01-28 03:43:00,
2013-01-27 22:48:00,32.5,30.4,30.06,South,179,3.0,10.0,92,0.00,,---,0.00,VWS V14.01,2013-01-28 03:48:00,
2013-01-27 22:53:00,32.7,30.6,30.05,SSE,160,2.0,10.0,92,0.00,,---,0.00,VWS V14.01,2013-01-28 03:53:00,
2013-01-27 22:58:00,32.9,30.8,30.05,SSE,150,3.0,10.0,92,0.00,,---,0.00,VWS V14.01,2013-01-28 03:58:00,
2013-01-27 23:03:00,33.0,31.2,30.04,SE,143,3.0,4.0,93,0.00,,---,0.00,VWS V14.01,2013-01-28 04:03:00,
2013-01-27 23:08:00,33.0,31.2,30.03,SE,139,1.0,5.0,93,0.00,,---,0.00,VWS V14.01,2013-01-28 04:08:00,
2013-01-27 23:13:00,33.0,31.2,30.03,SSE,158,4.0,10.0,93,0.00,,---,0.00,VWS V14.01,2013-01-28 04:13:00,
2013-01-27 23:18:00,33.1,31.3,30.03,SE,144,3.0,10.0,93,0.00,,---,0.00,VWS V14.01,2013-01-28 04:18:00,
2013-01-27 23:23:00,33.1,31.3,30.03,SE,146,3.0,10.0,93,0.00,,---,0.00,VWS V14.01,2013-01-28 04:23:00,
2013-01-27 23:28:00,33.2,31.4,30.02,SE,134,3.0,10.0,93,0.00,,---,0.00,VWS V14.01,2013-01-28 04:28:00,
2013-01-27 23:33:00,33.2,31.4,30.03,SSE,150,4.0,7.0,93,0.00,,---,0.00,VWS V14.01,2013-01-28 04:33:00,
2013-01-27 23:38:00,33.2,31.4,30.03,SSE,149,2.0,8.0,93,0.00,,---,0.00,VWS V14.01,2013-01-28 04:38:00,
2013-01-27 23:43:00,33.2,31.4,30.02,ENE,61,2.0,8.0,93,0.00,,---,0.00,VWS V14.01,2013-01-28 04:43:00,
2013-01-27 23:48:00,33.2,31.4,30.02,SW,231,4.0,8.0,93,0.00,,---,0.00,VWS V14.01,2013-01-28 04:48:00,
2013-01-27 23:53:00,33.3,31.5,30.02,SSE,159,3.0,8.0,93,0.00,,---,0.00,VWS V14.01,2013-01-28 04:53:00,
2013-01-27 23:58:00,33.3,31.5,30.02,SSE,163,1.0,8.0,93,0.00,,---,0.00,VWS V14.01,2013-01-28 04:58:00,